VE4JMP Weather Reports


time (UTC)temp
C
wind
direction
speed
KPH
gust
KPH
rain 1hr
cm
rain 24hr
cm
rain mn
cm
humidity
%
barometer
mb
20260504040023 8 259 8.0 16.1 0.10 0.10 0.10 80 994.3
20260504035027 8 267 8.0 9.7 0.08 0.08 0.08 76 994.5
20260504034031 9 272 11.3 16.1 0.08 0.08 0.08 75 994.8
20260504033017 10 271 16.1 24.1 0.03 0.03 0.03 72 994.6
20260504032021 10 263 14.5 16.1 0.03 0.03 0.03 69 994.8
20260504031025 11 279 17.7 27.4 0.00 0.00 0.00 66 994.6
20260504030029 12 265 17.7 22.5 0.00 0.00 0.00 57 993.9
20260504025015 14 270 16.1 27.4 0.00 0.00 0.00 47 993.8
20260504024020 14 268 12.9 19.3 0.00 0.00 0.00 45 993.6
20260504023024 14 243 16.1 20.9 0.00 0.00 0.00 47 993.6
20260504022022 15 283 16.1 20.9 0.00 0.00 0.00 46 993.6
20260504021020 15 276 14.5 19.3 0.00 0.00 0.00 43 993.8
20260504020018 15 282 14.5 24.1 0.00 0.00 0.00 44 993.8
20260504015016 15 272 16.1 24.1 0.00 0.00 0.00 45 993.7
20260504014026 16 271 12.9 19.3 0.00 0.00 0.00 36 993.6
20260504013030 17 268 22.5 30.6 0.00 0.00 0.00 35 993.6
20260504012016 17 270 24.1 43.5 0.00 0.00 0.00 36 993.8
20260504011020 17 267 29.0 35.4 0.00 0.00 0.00 35 994.1
20260504010044 17 277 22.5 38.6 0.00 0.00 0.00 32 993.9
20260504005029 18 261 24.1 35.4 0.00 0.00 0.00 30 993.9
20260504004033 18 271 24.1 35.4 0.00 0.00 0.00 31 993.8
20260504003019 18 247 17.7 24.1 0.00 0.00 0.00 34 993.6
20260504002023 18 256 20.9 29.0 0.00 0.00 0.00 34 994.1
20260504001026 18 264 24.1 38.6 0.00 0.00 0.00 34 994.3
20260504000031 19 264 24.1 38.6 0.00 0.00 0.00 34 994.3
20260503235017 20 267 25.7 38.6 0.00 0.00 0.00 33 994.2
20260503234021 20 262 22.5 30.6 0.00 0.00 0.00 34 994.1
20260503233025 20 253 19.3 33.8 0.00 0.00 0.00 40 994.3
20260503232050 21 263 19.3 25.7 0.00 0.00 0.00 36 994.5
20260503231015 21 260 24.1 35.4 0.00 0.00 0.00 39 994.6
20260503230020 21 268 35.4 43.5 0.00 0.00 0.00 38 994.5
20260503225023 21 248 25.7 35.4 0.00 0.00 0.00 36 994.5
20260503224027 20 242 24.1 33.8 0.00 0.00 0.00 37 994.4
20260503223032 20 256 20.9 33.8 0.00 0.00 0.00 36 994.1
20260503222017 21 264 24.1 37.0 0.00 0.00 0.00 34 994.1
20260503221021 20 226 17.7 25.7 0.00 0.00 0.00 31 994.6
20260503220026 20 251 24.1 37.0 0.00 0.00 0.00 32 994.8
20260503215050 20 221 8.0 12.9 0.00 0.00 0.00 32 995.1
20260503214016 20 260 8.0 11.3 0.00 0.00 0.00 32 995.4
20260503213020 19 263 9.7 11.3 0.00 0.00 0.00 33 996.0
20260503212024 20 239 17.7 24.1 0.00 0.00 0.00 35 996.3
20260503211022 20 270 11.3 14.5 0.00 0.00 0.00 33 996.9
20260503210020 20 229 14.5 20.9 0.00 0.00 0.00 32 997.0
20260503205018 20 194 11.3 14.5 0.00 0.00 0.00 31 996.9
20260503204016 20 256 14.5 17.7 0.00 0.00 0.00 31 996.9
20260503203027 20 244 8.0 9.7 0.00 0.00 0.00 31 997.2
20260503202030 22 240 20.9 24.1 0.00 0.00 0.00 28 997.5
20260503201016 22 276 17.7 20.9 0.00 0.00 0.00 28 998.0
20260503200020 21 239 16.1 24.1 0.00 0.00 0.00 29 998.5
20260503195025 21 252 19.3 29.0 0.00 0.00 0.00 28 998.9
20260503194050 22 243 16.1 25.7 0.00 0.00 0.00 29 999.1
20260503193015 22 247 14.5 19.3 0.00 0.00 0.00 29 999.3
20260503192019 21 221 16.1 22.5 0.00 0.00 0.00 29 999.7
20260503191023 21 240 16.1 24.1 0.00 0.00 0.00 30 1000.0
20260503190027 21 250 14.5 20.9 0.00 0.00 0.00 30 1000.4
20260503185031 21 238 12.9 17.7 0.00 0.00 0.00 32 1000.7
20260503184018 20 232 11.3 19.3 0.00 0.00 0.00 32 1001.1
20260503183022 20 218 11.3 16.1 0.00 0.00 0.00 32 1001.8
20260503182046 20 223 14.5 17.7 0.00 0.00 0.00 31 1002.3
20260503181031 20 237 12.9 17.7 0.00 0.00 0.00 30 1002.5
20260503180017 21 240 12.9 24.1 0.00 0.00 0.00 29 1002.7
20260503175020 20 212 14.5 20.9 0.00 0.00 0.00 29 1002.9
20260503174024 20 213 12.9 17.7 0.00 0.00 0.00 31 1003.2
20260503173028 20 234 9.7 14.5 0.00 0.00 0.00 34 1003.5
20260503172032 19 254 11.3 17.7 0.00 0.00 0.00 35 1004.0
20260503171018 19 239 12.9 17.7 0.00 0.00 0.00 34 1004.6
20260503131026 6 228 6.4 8.0 0.00 0.00 0.00 59 1008.8
20260503081022 0 225 3.2 3.2 0.00 0.00 0.00 87 1010.4
20260503072044 0 0.0 0.0 0.00 0.00 0.00 82 1010.5
20260503071029 0 0.0 0.0 0.00 0.00 0.00 79 1010.6
20260503055026 2 0.0 0.0 0.00 0.00 0.00 70 1010.8
20260503054023 2 0.0 0.0 0.00 0.00 0.00 70 1010.8
20260503053016 3 0.0 0.0 0.00 0.00 0.00 68 1011.0
20260503052020 3 0.0 0.0 0.00 0.00 0.00 68 1011.0
20260503051018 4 60 1.6 3.2 0.00 0.00 0.00 65 1011.0
20260503050017 5 24 3.2 4.8 0.00 0.00 0.00 64 1011.1
20260503045033 5 48 4.8 4.8 0.00 0.00 0.00 63 1011.1
20260503044039 6 47 4.8 8.0 0.00 0.00 0.00 61 1011.0
20260503043022 6 37 6.4 8.0 0.00 0.00 0.00 60 1010.8
20260503042026 6 37 6.4 8.0 0.00 0.00 0.00 59 1011.0
20260503041030 7 34 6.4 9.7 0.00 0.00 0.00 59 1011.0